VE3KSR Weather Reports


Display with metric or nautical units.
time (UTC)temp
F
wind
direction
speed
MPH
gust
MPH
rain 1hr
in
rain 24hr
in
rain mn
in
humidity
%
barometer
mb
20150528094538 46 350 12.0 17.0 0.67 0.00 0.00 97 1022.6
20150528094037 46 326 12.0 16.0 0.67 0.00 0.00 97 1022.3
20150528093537 46 323 11.0 16.0 0.67 0.00 0.00 97 1022.4
20150528093039 46 322 12.0 19.0 0.67 0.00 0.00 96 1022.4
20150528092537 46 311 13.0 17.0 0.67 0.00 0.00 96 1022.4
20150528092037 46 322 12.0 17.0 0.67 0.00 0.00 96 1022.3
20150528091537 47 307 13.0 17.0 0.67 0.00 0.00 96 1022.1
20150528091037 47 319 15.0 20.0 0.67 0.00 0.00 96 1022.1
20150528090537 47 333 12.0 18.0 0.67 0.00 0.00 96 1022.0
20150528090037 47 326 14.0 17.0 0.67 0.00 0.00 96 1021.9
20150528085537 47 346 11.0 16.0 0.67 0.00 0.00 96 1021.8
20150528085037 47 318 13.0 17.0 0.67 0.00 0.00 96 1021.6
20150528084537 47 326 13.0 20.0 0.67 0.00 0.00 96 1021.3
20150528084037 47 308 12.0 16.0 0.67 0.00 0.00 96 1021.4
20150528083537 47 323 14.0 19.0 0.67 0.00 0.00 96 1021.3
20150528083038 47 312 12.0 17.0 0.67 0.00 0.00 96 1021.2
20150528082537 47 314 14.0 20.0 0.67 0.00 0.00 96 1021.0
20150528082037 47 319 14.0 20.0 0.67 0.00 0.00 96 1021.2
20150528081537 47 325 11.0 17.0 0.67 0.00 0.00 96 1021.1
20150528081037 47 298 12.0 17.0 0.67 0.00 0.00 96 1021.1
20150528080537 48 328 10.0 14.0 0.67 0.00 0.00 96 1021.2
20150528080037 48 311 11.0 17.0 0.67 0.00 0.00 96 1021.0
20150528075537 48 307 12.0 19.0 0.67 0.00 0.00 96 1021.0
20150528075037 48 321 10.0 17.0 0.67 0.00 0.00 93 1020.9
20150528074537 48 321 11.0 18.0 0.67 0.00 0.00 96 1020.9
20150528074038 48 323 10.0 17.0 0.67 0.00 0.00 95 1020.8
20150528073537 48 332 9.0 12.0 0.67 0.00 0.00 96 1020.9
20150528073037 48 309 9.0 14.0 0.67 0.00 0.00 95 1020.7
20150528072537 48 322 9.0 12.0 0.67 0.00 0.00 95 1020.5
20150528072037 48 315 10.0 15.0 0.67 0.00 0.00 95 1020.3
20150528071537 48 332 9.0 11.0 0.67 0.00 0.00 95 1020.3
20150528071037 48 319 10.0 13.0 0.67 0.00 0.00 95 1020.2
20150528070537 48 325 10.0 14.0 0.67 0.00 0.00 95 1020.2
20150528070037 49 315 10.0 13.0 0.67 0.00 0.00 95 1020.0
20150528065537 49 330 12.0 16.0 0.67 0.00 0.00 95 1020.0
20150528065037 49 333 12.0 18.0 0.67 0.00 0.00 95 1019.8
20150528064538 49 316 12.0 15.0 0.67 0.00 0.00 95 1019.8
20150528064038 49 307 11.0 15.0 0.67 0.00 0.00 96 1019.8
20150528063539 49 326 12.0 17.0 0.67 0.00 0.00 96 1019.8
20150528063037 49 321 11.0 16.0 0.67 0.00 0.00 96 1019.6
20150528062537 49 332 10.0 15.0 0.67 0.00 0.00 96 1019.6
20150528062039 49 330 9.0 14.0 0.67 0.00 0.00 96 1019.4
20150528061538 49 312 10.0 16.0 0.67 0.00 0.00 96 1019.2
20150528061037 50 323 12.0 16.0 0.67 0.00 0.00 96 1019.1
20150528060537 50 312 13.0 17.0 0.67 0.00 0.00 96 1019.0
20150528060037 50 330 9.0 15.0 0.67 0.00 0.00 96 1019.0
20150528055537 50 318 12.0 17.0 0.67 0.00 0.00 96 1018.8
20150528055038 50 304 11.0 16.0 0.67 0.00 0.00 96 1018.7
20150528054537 50 336 13.0 17.0 0.67 0.00 0.00 96 1018.7
20150528054039 50 333 14.0 20.0 0.67 0.00 0.00 96 1018.6
20150528053542 50 333 13.0 16.0 0.67 0.00 0.00 96 1018.4
20150528053037 50 338 12.0 15.0 0.67 0.00 0.00 96 1018.3
20150528052540 50 345 12.0 16.0 0.67 0.00 0.00 96 1018.3
20150528052040 50 343 14.0 18.0 0.67 0.00 0.00 96 1018.3
20150528051538 49 308 18.0 26.0 0.67 0.00 0.00 95 1018.2
20150528051037 50 349 15.0 21.0 0.67 0.00 0.00 95 1018.2
20150528050542 51 342 18.0 25.0 0.67 0.00 0.00 96 1018.0
20150528050037 51 345 18.0 24.0 0.67 0.00 0.00 96 1018.0
20150528045538 51 340 15.0 21.0 0.67 0.00 0.00 96 1018.2
20150528045037 51 345 18.0 25.0 0.67 0.00 0.00 96 1018.1
20150528044538 51 342 16.0 25.0 0.67 0.00 0.00 96 1017.9
20150528044037 51 352 17.0 23.0 0.67 0.00 0.00 96 1017.6
20150528043537 52 329 18.0 25.0 0.67 0.00 0.00 96 1017.5
20150528043037 53 311 17.0 23.0 0.67 0.00 0.00 95 1017.7
20150528042537 54 304 13.0 23.0 0.67 0.00 0.00 94 1017.5
20150528042038 53 290 11.0 17.0 0.67 0.00 0.00 97 1017.3
20150528041537 54 267 12.0 16.0 0.67 0.00 0.00 97 1017.1
20150528041038 54 260 13.0 17.0 0.67 0.00 0.00 97 1017.2
20150528040538 54 280 12.0 16.0 0.67 0.00 0.00 97 1017.1
20150528040037 54 259 13.0 18.0 0.67 0.00 0.00 97 1017.2
20150528035537 54 245 12.0 16.0 0.67 0.00 0.00 97 1017.1
20150528035037 54 269 13.0 16.0 0.67 0.00 0.00 97 1017.0
20150528034542 54 255 11.0 16.0 0.67 0.00 0.00 97 1017.0
20150528034038 54 250 11.0 16.0 0.67 0.00 0.00 97 1017.0
20150528033538 53 240 13.0 17.0 0.67 0.00 0.00 97 1017.1
20150528033037 54 263 11.0 15.0 0.67 0.00 0.00 97 1017.2
20150528032538 54 262 11.0 16.0 0.67 0.00 0.00 97 1017.0
20150528032038 54 250 13.0 15.0 0.67 0.00 0.00 97 1017.0
20150528031538 54 253 13.0 17.0 0.67 0.00 0.00 96 1016.9
20150528031038 54 278 13.0 16.0 0.67 0.00 0.00 96 1016.8
20150528030538 54 250 14.0 18.0 0.67 0.00 0.00 96 1016.9
20150528030038 54 250 13.0 16.0 0.67 0.00 0.00 96 1016.9
20150528025538 54 260 13.0 18.0 0.67 0.00 0.00 96 1016.7
20150528025038 54 246 13.0 17.0 0.67 0.00 0.00 96 1016.7
20150528024538 55 270 13.0 17.0 0.67 0.00 0.00 95 1016.5
20150528024040 55 257 14.0 18.0 0.67 0.00 0.00 96 1016.6
20150528023539 55 255 12.0 17.0 0.67 0.00 0.00 95 1016.5
20150528023038 55 294 13.0 18.0 0.67 0.00 0.00 95 1016.4
20150528022538 55 257 13.0 17.0 0.67 0.00 0.00 95 1016.4
20150528022038 55 252 14.0 19.0 0.67 0.00 0.00 95 1016.3
20150528021538 55 257 13.0 18.0 0.67 0.00 0.00 95 1016.2
20150528021038 55 297 14.0 19.0 0.67 0.00 0.00 95 1016.2
20150528020540 55 259 13.0 16.0 0.67 0.00 0.00 95 1016.1
20150528020040 55 271 11.0 15.0 0.67 0.00 0.00 94 1016.2
20150528015540 55 266 12.0 15.0 0.67 0.00 0.00 95 1016.1
20150528015038 55 259 12.0 16.0 0.67 0.00 0.00 94 1015.9
20150528014538 55 266 11.0 15.0 0.67 0.00 0.00 94 1015.9
20150528014038 55 256 13.0 17.0 0.67 0.00 0.00 95 1015.7
20150528013539 55 249 13.0 16.0 0.67 0.00 0.00 95 1015.5
20150528013039 55 266 12.0 17.0 0.67 0.00 0.00 94 1015.5
20150528012538 55 262 14.0 20.0 0.67 0.00 0.00 94 1015.4
20150528012039 55 259 13.0 18.0 0.67 0.00 0.00 95 1015.5
20150528011538 55 266 12.0 17.0 0.67 0.00 0.00 95 1015.5
20150528011041 55 273 11.0 14.0 0.67 0.00 0.00 95 1015.5
20150528010539 56 267 12.0 16.0 0.67 0.00 0.00 95 1015.4
20150528010039 55 253 13.0 17.0 0.67 0.00 0.00 95 1015.3
20150528005538 55 256 14.0 16.0 0.67 0.00 0.00 95 1015.3
20150528005038 56 246 15.0 17.0 0.67 0.00 0.00 95 1015.3
20150528004538 56 235 14.0 18.0 0.67 0.00 0.00 94 1015.2
20150528004039 56 264 14.0 19.0 0.67 0.00 0.00 94 1015.1
20150528003542 56 253 15.0 21.0 0.67 0.00 0.00 94 1015.0
20150528003039 56 248 15.0 21.0 0.67 0.00 0.00 94 1014.8
20150528002538 56 260 16.0 22.0 0.67 0.00 0.00 94 1015.1
20150528002038 56 240 16.0 22.0 0.67 0.00 0.00 94 1015.1
20150528001540 55 232 17.0 27.0 0.67 0.00 0.00 94 1015.1
20150528001038 55 245 15.0 18.0 0.67 0.00 0.00 94 1015.1
20150528000538 55 257 15.0 19.0 0.67 0.00 0.00 94 1015.0
20150528000038 55 218 17.0 23.0 0.67 0.00 0.00 94 1015.0
20150527235538 55 253 18.0 22.0 0.67 0.00 0.00 94 1015.0
20150527235039 55 238 17.0 22.0 0.67 0.00 0.00 94 1015.0
20150527234538 55 256 17.0 23.0 0.67 0.00 0.00 94 1015.0
20150527234038 56 236 19.0 24.0 0.67 0.00 0.00 94 1015.1
20150527233538 55 243 15.0 21.0 0.67 0.00 0.00 94 1015.0
20150527233038 56 359 16.0 26.0 0.67 0.00 0.00 94 1014.7
20150527232541 56 263 18.0 23.0 0.67 0.00 0.00 93 1014.6
20150527232041 56 239 14.0 22.0 0.67 0.00 0.00 94 1014.7
20150527231541 55 250 17.0 22.0 0.67 0.00 0.00 94 1014.7
20150527231039 56 226 16.0 23.0 0.67 0.00 0.00 94 1014.8
20150527230538 56 235 18.0 22.0 0.67 0.00 0.00 94 1014.8
20150527230038 55 252 17.0 20.0 0.67 0.00 0.00 93 1014.6
20150527225538 56 249 18.0 22.0 0.67 0.00 0.00 93 1014.8
20150527225039 56 248 18.0 26.0 0.67 0.00 0.00 92 1014.7
20150527224539 56 242 21.0 27.0 0.67 0.00 0.00 92 1014.7
20150527224039 57 239 17.0 23.0 0.67 0.00 0.00 92 1014.7
20150527223538 57 255 17.0 22.0 0.67 0.00 0.00 91 1014.7
20150527223038 57 260 20.0 35.0 0.67 0.00 0.00 91 1014.8
20150527222538 57 236 24.0 32.0 0.67 0.00 0.00 91 1014.7
20150527222038 57 246 21.0 26.0 0.67 0.00 0.00 90 1014.6
20150527221538 57 259 21.0 35.0 0.67 0.00 0.00 91 1014.4
20150527221038 57 249 19.0 28.0 0.67 0.00 0.00 90 1014.6
20150527220538 57 252 18.0 26.0 0.67 0.00 0.00 90 1014.5
20150527220039 57 253 18.0 23.0 0.67 0.00 0.00 89 1014.6
20150527215538 57 256 17.0 26.0 0.67 0.00 0.00 89 1014.7
20150527215038 57 236 19.0 26.0 0.67 0.00 0.00 88 1015.1
20150527214540 56 238 24.0 34.0 0.67 0.00 0.00 87 1014.7
20150527214038 57 245 24.0 33.0 0.67 0.00 0.00 86 1014.6
20150527213538 57 238 23.0 31.0 0.67 0.00 0.00 87 1014.8
20150527213038 57 280 18.0 26.0 0.67 0.00 0.00 87 1014.8
20150527212538 57 274 20.0 30.0 0.67 0.00 0.00 84 1014.7
20150527212038 57 240 21.0 29.0 0.67 0.00 0.00 82 1014.6
20150527211538 57 236 28.0 39.0 0.67 0.00 0.00 81 1014.1
20150527211038 58 235 24.0 31.0 0.67 0.00 0.00 84 1014.1
20150527210538 58 249 28.0 41.0 0.67 0.00 0.00 80 1014.0
20150527210038 58 245 26.0 36.0 0.67 0.00 0.00 82 1013.9
20150527205539 59 245 29.0 37.0 0.67 0.00 0.00 73 1014.0
20150527205043 60 229 28.0 37.0 0.67 0.00 0.00 83 1014.2
20150527204538 60 221 27.0 39.0 0.67 0.00 0.00 83 1014.0
20150527204038 60 225 26.0 36.0 0.67 0.00 0.00 82 1014.0
20150527203539 61 240 33.0 44.0 0.67 0.00 0.00 82 1014.1
20150527203038 62 250 33.0 46.0 0.67 0.00 0.00 77 1014.0
20150527202539 63 260 31.0 39.0 0.67 0.00 0.00 76 1013.8
20150527202038 63 250 28.0 36.0 0.67 0.00 0.00 74 1013.8
20150527201538 64 249 31.0 40.0 0.67 0.00 0.00 68 1013.7
20150527201038 63 255 28.0 37.0 0.67 0.00 0.00 73 1013.8
20150527200538 63 238 31.0 38.0 0.67 0.00 0.00 73 1013.8
20150527200039 64 222 30.0 38.0 0.67 0.00 0.00 72 1013.5
20150527195539 64 245 31.0 39.0 0.67 0.00 0.00 72 1013.5
20150527194039 65 232 26.0 36.0 0.67 0.00 0.00 72 1013.9
20150527193539 65 249 30.0 38.0 0.67 0.00 0.00 72 1013.9
20150527193039 64 243 29.0 37.0 0.67 0.00 0.00 70 1013.9
20150527192539 65 255 27.0 36.0 0.67 0.00 0.00 70 1014.2
20150527192039 64 236 26.0 32.0 0.67 0.00 0.00 70 1014.0
20150527191539 65 246 30.0 42.0 0.67 0.00 0.00 70 1014.1
20150527191038 65 238 27.0 34.0 0.67 0.00 0.00 71 1014.1
20150527190539 65 240 23.0 32.0 0.67 0.00 0.00 71 1014.2
20150527190039 65 240 23.0 30.0 0.67 0.00 0.00 73 1014.1
20150527185539 65 248 26.0 38.0 0.67 0.00 0.00 72 1014.0
20150527185039 65 250 23.0 29.0 0.67 0.00 0.00 72 1014.3
20150527184539 65 218 24.0 29.0 0.67 0.00 0.00 73 1014.3
20150527184039 64 253 24.0 29.0 0.67 0.00 0.00 76 1014.5
20150527183540 64 226 27.0 35.0 0.67 0.00 0.00 75 1014.5
20150527183039 65 253 23.0 32.0 0.67 0.00 0.00 74 1014.7
20150527182539 65 242 22.0 32.0 0.67 0.00 0.00 73 1014.8
20150527182039 65 238 21.0 29.0 0.67 0.00 0.00 76 1015.0
20150527181539 65 242 25.0 36.0 0.67 0.00 0.00 75 1015.0
20150527181039 64 240 29.0 39.0 0.67 0.00 0.00 75 1015.0
20150527180540 65 242 21.0 30.0 0.67 0.00 0.00 75 1015.1
20150527180040 65 249 27.0 38.0 0.67 0.00 0.00 76 1015.1
20150527175539 65 239 27.0 37.0 0.67 0.00 0.00 75 1015.0
20150527175039 65 246 24.0 30.0 0.67 0.00 0.00 74 1015.1
20150527174539 65 245 18.0 27.0 0.67 0.00 0.00 75 1015.3
20150527174039 65 259 24.0 33.0 0.67 0.00 0.00 74 1015.2
20150527173539 65 252 25.0 33.0 0.67 0.00 0.00 74 1015.2
20150527173039 64 248 29.0 39.0 0.67 0.00 0.00 74 1015.2
20150527172539 65 249 27.0 33.0 0.67 0.00 0.00 74 1015.4
20150527172039 64 233 27.0 39.0 0.67 0.00 0.00 76 1015.5
20150527171539 65 283 21.0 29.0 0.67 0.00 0.00 76 1015.6
20150527171039 64 233 29.0 40.0 0.67 0.00 0.00 76 1015.5
20150527170539 65 238 24.0 33.0 0.67 0.00 0.00 76 1015.4
20150527170039 64 235 24.0 33.0 0.67 0.00 0.00 77 1015.6
20150527165539 64 236 26.0 37.0 0.67 0.00 0.00 77 1015.5
20150527165039 64 288 24.0 35.0 0.67 0.00 0.00 78 1015.5
20150527164539 64 238 24.0 32.0 0.67 0.00 0.00 78 1015.6
20150527164039 64 236 26.0 31.0 0.67 0.00 0.00 78 1015.4
20150527163539 64 240 22.0 30.0 0.67 0.00 0.00 79 1015.5
20150527163039 64 238 24.0 30.0 0.67 0.00 0.00 78 1015.4
20150527162539 64 236 23.0 29.0 0.67 0.00 0.00 80 1015.5
20150527162039 63 226 23.0 30.0 0.67 0.00 0.00 81 1015.5
20150527161539 63 255 23.0 28.0 0.67 0.00 0.00 81 1015.5
20150527161039 63 242 22.0 28.0 0.67 0.00 0.00 81 1015.5
20150527160539 64 242 22.0 30.0 0.67 0.00 0.00 79 1015.4
20150527160039 64 239 23.0 31.0 0.67 0.00 0.00 81 1015.4
20150527155539 64 235 21.0 28.0 0.67 0.00 0.00 81 1015.4
20150527155039 63 232 23.0 28.0 0.67 0.00 0.00 81 1015.4
20150527154539 63 246 25.0 32.0 0.67 0.00 0.00 82 1015.5
20150527154039 63 243 24.0 33.0 0.67 0.00 0.00 82 1015.5
20150527153539 63 250 21.0 31.0 0.67 0.00 0.00 81 1015.5
20150527153039 63 240 25.0 30.0 0.67 0.00 0.00 81 1015.6
20150527152539 63 252 25.0 33.0 0.67 0.00 0.00 82 1015.4
20150527152039 63 242 23.0 29.0 0.67 0.00 0.00 84 1015.5
20150527151539 63 229 23.0 29.0 0.67 0.00 0.00 83 1015.4
20150527151039 63 239 20.0 30.0 0.67 0.00 0.00 85 1015.4
20150527150539 63 255 22.0 27.0 0.67 0.00 0.00 85 1015.4
20150527150039 63 236 19.0 31.0 0.67 0.00 0.00 86 1015.5
20150527145539 62 236 19.0 23.0 0.67 0.00 0.00 86 1015.5
20150527145039 62 233 19.0 26.0 0.67 0.00 0.00 86 1015.5
20150527144539 62 228 22.0 33.0 0.67 0.00 0.00 87 1015.5
20150527144039 62 242 19.0 28.0 0.67 0.00 0.00 88 1015.6
20150527143541 61 240 22.0 29.0 0.67 0.00 0.00 86 1015.5
20150527143039 61 238 22.0 27.0 0.67 0.00 0.00 87 1015.6
20150527142540 61 242 22.0 27.0 0.67 0.00 0.00 89 1015.7
20150527142039 61 242 20.0 26.0 0.67 0.00 0.00 90 1016.0
20150527141539 61 245 16.0 22.0 0.67 0.00 0.00 92 1016.0
20150527141039 60 252 17.0 24.0 0.67 0.00 0.00 92 1016.0
20150527140540 60 359 18.0 29.0 0.67 0.00 0.00 92 1016.0
20150527140039 60 256 18.0 26.0 0.67 0.00 0.00 92 1016.1
20150527135539 60 276 16.0 26.0 0.67 0.00 0.00 93 1016.1
20150527135039 59 252 19.0 24.0 0.67 0.00 0.00 94 1016.2
20150527134539 59 242 21.0 28.0 0.67 0.00 0.00 93 1016.1
20150527134039 59 245 21.0 26.0 0.67 0.00 0.00 93 1016.1
20150527133540 59 243 16.0 23.0 0.67 0.00 0.00 94 1016.3
20150527133039 59 228 16.0 22.0 0.67 0.00 0.00 95 1016.2
20150527132540 59 242 18.0 21.0 0.67 0.00 0.00 95 1016.2
20150527132039 58 249 18.0 23.0 0.67 0.00 0.00 95 1016.3
20150527131539 58 233 18.0 22.0 0.67 0.00 0.00 95 1016.3
20150527131039 58 243 15.0 20.0 0.67 0.00 0.00 96 1016.4
20150527130539 58 253 18.0 22.0 0.67 0.00 0.00 95 1016.3
20150527130039 58 256 16.0 22.0 0.67 0.00 0.00 95 1016.4
20150527125539 58 236 18.0 23.0 0.67 0.00 0.00 95 1016.2
20150527125039 58 246 15.0 21.0 0.67 0.00 0.00 96 1016.3
20150527124539 58 288 18.0 24.0 0.67 0.00 0.00 96 1016.2
20150527124039 58 249 19.0 26.0 0.67 0.00 0.00 96 1016.2
20150527123539 58 249 19.0 23.0 0.67 0.00 0.00 96 1016.2
20150527123041 58 238 19.0 24.0 0.67 0.00 0.00 96 1016.2
20150527122539 58 240 17.0 21.0 0.67 0.00 0.00 96 1016.3
20150527122042 58 255 14.0 19.0 0.67 0.00 0.00 97 1016.1
20150527121539 58 266 16.0 24.0 0.67 0.00 0.00 96 1016.1
20150527121039 58 253 15.0 21.0 0.67 0.00 0.00 97 1016.0
20150527120540 57 245 15.0 23.0 0.67 0.00 0.00 96 1016.1
20150527120040 57 243 14.0 22.0 0.67 0.00 0.00 91 1015.9
20150527115542 57 228 16.0 20.0 0.67 0.00 0.00 96 1015.9
20150527115039 57 262 16.0 22.0 0.67 0.00 0.00 96 1015.9
20150527114539 57 232 12.0 17.0 0.67 0.00 0.00 96 1015.8
20150527114040 57 288 13.0 16.0 0.67 0.00 0.00 96 1015.8
20150527113539 57 252 12.0 17.0 0.67 0.00 0.00 96 1015.8
20150527113039 57 256 15.0 22.0 0.67 0.00 0.00 96 1015.7
20150527112540 57 280 12.0 17.0 0.67 0.00 0.00 96 1015.6
20150527112040 57 245 13.0 18.0 0.67 0.00 0.00 96 1015.5
20150527111540 57 252 14.0 19.0 0.67 0.00 0.00 96 1015.5
20150527111040 57 253 15.0 23.0 0.67 0.00 0.00 97 1015.5
20150527110540 57 255 15.0 21.0 0.67 0.00 0.00 97 1015.4
20150527110040 57 291 15.0 21.0 0.67 0.00 0.00 97 1015.4
20150527105541 57 264 15.0 20.0 0.67 0.00 0.00 97 1015.2
20150527105039 57 259 15.0 19.0 0.67 0.00 0.00 97 1015.3
20150527104540 57 249 14.0 20.0 0.67 0.00 0.00 97 1015.2
20150527104040 57 250 17.0 25.0 0.67 0.00 0.00 97 1015.2
20150527103540 57 359 15.0 20.0 0.67 0.00 0.00 97 1015.1
20150527103041 57 226 13.0 22.0 0.67 0.00 0.00 97 1015.0
20150527102540 57 250 13.0 19.0 0.67 0.00 0.00 97 1014.8
20150527102040 57 252 14.0 22.0 0.67 0.00 0.00 97 1014.8
20150527101540 57 256 14.0 20.0 0.67 0.00 0.00 97 1014.8
20150527101040 57 239 13.0 19.0 0.67 0.00 0.00 96 1014.6
20150527100818 57 246 13.0 21.0 0.67 0.00 0.00 97 1014.7
20150527100540 57 246 13.0 21.0 0.67 0.00 0.00 97 1014.7
20150527100040 57 249 15.0 21.0 0.67 0.00 0.00 97 1014.6
20150527095540 57 235 16.0 21.0 0.67 0.00 0.00 97 1014.5
20150527095446 57 359 16.0 22.0 0.67 0.00 0.00 97 1014.5
20150527095040 57 359 16.0 22.0 0.67 0.00 0.00 97 1014.5